Theta_e
310 310 310 310 310 310 310 310 310 310 310 310 310 310 311 313 313 323 325 315 317 313 315 318 318 319 319 321 321 323 324 327 330 333 332 333 330 330 329 330 332 333 338 345 350
310 310 310 310 310 310 310 310 310 310 310 310 310 310 311 313 321 324 316 316 314 312 316 318 321 320 321 322 322 321 323 325 329 330 331 331 329 328 328 329 330 332 342 346 349
310 309 310 310 310 310 310 310 311 310 310 310 311 311 311 312 328 323 315 316 316 317 320 319 320 321 322 322 322 322 322 324 325 326 327 327 328 329 327 329 330 329 334 347 348
309 309 309 310 310 310 310 311 311 311 312 314 314 312 313 322 327 321 315 314 314 318 319 320 321 322 323 323 323 322 323 323 323 324 325 326 327 327 328 329 330 329 329 338 344
308 309 309 309 310 310 311 311 312 313 314 316 316 314 319 325 321 319 317 317 319 318 319 320 321 323 323 323 322 322 323 323 323 323 324 325 325 327 329 330 330 330 330 330 339
308 308 309 309 310 310 311 312 313 313 316 317 316 314 326 324 321 321 321 320 321 320 319 321 323 323 323 323 322 324 323 323 323 324 325 325 327 327 328 328 328 328 329 329 333
308 308 309 309 310 311 312 312 313 315 317 316 316 319 323 321 320 322 320 321 322 322 323 321 322 322 324 324 324 323 322 324 324 325 326 326 325 326 328 328 328 329 328 328 331
307 308 309 309 310 311 312 312 313 316 318 316 316 323 322 318 320 321 322 322 321 321 321 321 321 323 322 324 322 322 324 325 326 325 326 325 328 328 328 328 328 329 329 328 333
307 308 309 309 311 312 312 312 314 315 317 316 326 328 324 319 324 321 322 323 320 320 321 320 321 323 323 322 324 324 326 326 326 326 325 326 326 329 330 329 328 329 329 329 330
306 308 309 310 311 312 313 313 315 315 322 322 324 327 324 326 323 322 321 321 321 321 322 322 323 324 324 324 327 326 326 326 326 327 325 326 326 329 332 331 330 331 330 330 331
306 308 308 310 311 312 316 318 322 325 321 321 321 323 325 322 321 322 320 320 322 322 324 323 323 326 325 324 324 324 324 324 325 326 325 326 326 332 333 333 334 334 337 339 340
306 307 308 310 310 314 317 319 317 317 323 320 319 321 321 321 322 322 320 322 322 324 322 325 327 324 323 324 324 325 326 328 326 326 326 326 329 332 333 336 336 339 342 346 347
306 307 308 311 311 316 317 316 315 316 325 321 320 322 323 322 324 322 322 322 322 322 324 328 325 323 324 326 326 327 326 325 325 325 327 327 332 334 334 336 338 341 342 346 347
306 307 308 311 316 316 319 315 316 316 330 324 322 320 321 322 323 322 322 323 322 323 324 326 324 324 325 325 325 328 325 325 325 326 328 330 340 334 334 335 339 341 341 342 346
306 307 308 310 314 318 315 314 316 319 333 324 322 321 322 323 323 322 322 323 323 323 324 326 324 325 328 326 325 327 324 325 325 327 328 326 338 335 333 334 339 340 340 340 342
306 307 308 316 315 316 313 314 319 329 331 324 321 322 323 323 323 322 323 324 323 324 324 325 325 325 326 325 325 326 326 328 328 328 331 326 329 336 334 334 338 339 339 340 340
307 308 308 311 318 314 314 319 328 332 326 323 323 323 324 324 323 324 324 325 327 327 327 324 325 326 326 326 327 326 329 331 331 328 329 327 324 336 333 334 336 338 338 338 340
307 308 313 312 312 314 317 324 330 327 326 325 323 324 325 325 324 324 326 327 326 328 327 328 328 327 327 326 327 327 327 332 332 331 329 327 330 334 333 334 334 336 337 338 339
309 315 314 316 315 315 323 325 328 326 325 324 324 325 325 325 326 327 329 329 328 329 333 329 328 326 326 327 327 330 332 327 329 330 331 329 332 332 333 335 334 335 336 337 337
311 315 317 316 316 318 324 323 326 325 324 325 325 326 326 325 326 328 328 329 329 328 328 331 330 327 327 327 328 329 328 330 332 333 332 329 330 339 339 336 333 334 336 336 334
313 320 319 315 316 321 324 323 323 322 324 326 326 325 326 326 327 328 329 329 327 328 328 330 332 331 329 329 330 328 329 331 331 331 333 331 332 337 336 334 333 333 333 332 331
317 321 318 315 321 322 322 323 313 323 324 324 326 326 326 325 326 327 329 330 326 327 328 330 330 331 329 328 326 326 328 330 332 330 329 329 327 334 331 331 331 331 330 329 330
319 322 318 317 323 321 321 321 323 323 324 324 325 325 326 327 328 327 329 325 325 328 330 329 331 333 327 330 330 330 329 325 327 330 332 331 330 332 332 331 331 331 330 329 330
320 322 321 319 322 325 321 322 323 324 323 324 325 325 326 326 326 327 327 325 324 326 324 328 330 330 330 329 326 326 325 325 327 330 331 330 329 329 329 332 331 330 330 329 329
319 323 324 322 321 321 322 323 323 323 323 324 325 325 326 327 325 326 325 325 324 325 327 329 331 329 328 326 325 326 325 325 326 327 329 328 328 328 332 331 330 330 328 328 327
320 323 322 324 322 322 318 324 323 323 323 325 325 324 324 326 326 327 326 326 328 327 328 329 330 329 330 326 326 326 325 325 325 325 326 328 332 331 330 328 328 329 328 328 326
315 317 323 320 324 322 322 322 323 324 324 324 324 323 325 326 327 327 327 327 327 327 328 330 331 330 329 326 327 328 328 326 325 325 327 329 328 329 330 330 329 327 328 326 325
Wind_Speed
12 13 15 16 17 19 19 20 21 20 19 19 19 18 19 21 17 6 2 4 3 6 6 6 7 9 9 13 7 8 11 12 15 11 9 7 7 6 5 9 6 4 8 8 11
12 14 16 18 18 20 21 21 21 22 20 19 18 17 18 21 12 10 5 3 4 7 9 10 9 6 11 8 4 9 10 14 8 10 7 10 8 8 7 10 9 7 13 11 11
13 15 17 19 20 22 23 23 23 23 20 18 17 16 16 17 11 6 4 8 7 6 9 8 8 9 12 6 7 9 13 9 9 6 11 12 11 9 10 13 8 8 4 10 9
14 16 18 20 21 23 25 24 23 21 19 18 17 15 15 5 1 7 5 5 6 6 9 9 9 11 8 6 1 10 5 8 10 6 9 12 10 10 14 14 14 11 10 8 10
16 17 19 20 22 24 26 25 21 20 18 15 13 11 7 10 8 4 5 4 4 6 10 8 10 8 10 2 4 9 4 5 8 11 12 9 11 14 13 16 11 14 13 9 9
17 18 20 22 24 25 26 21 20 19 13 11 8 7 6 11 6 5 4 5 5 9 3 6 4 7 8 8 8 6 9 11 9 9 7 10 11 6 16 13 14 12 11 11 11
17 19 21 23 25 27 22 23 19 12 8 6 5 4 8 4 5 4 5 4 1 3 5 2 7 9 6 11 6 10 13 13 5 4 3 6 15 15 7 12 8 6 5 6 7
18 20 21 24 26 24 21 24 12 7 5 5 5 5 2 4 4 6 6 6 5 4 6 4 7 11 8 8 11 13 16 13 10 6 6 13 4 10 10 9 8 6 6 3 6
19 20 22 25 26 20 22 18 5 5 4 4 4 7 6 5 8 1 6 7 5 5 5 5 11 11 7 13 13 10 9 6 7 3 7 8 11 8 6 8 8 8 8 2 5
20 21 23 25 26 18 20 9 5 3 6 6 7 7 6 4 2 3 4 5 6 4 9 10 9 12 12 9 10 8 5 6 7 6 9 15 7 4 9 10 6 5 8 8 10
21 22 23 24 23 15 20 5 5 6 12 6 4 5 4 0 3 6 7 8 6 7 11 5 11 2 12 7 7 6 6 6 2 4 8 12 9 13 6 13 15 15 15 13 10
21 23 24 23 16 11 9 5 7 6 4 3 3 5 3 2 4 4 7 8 5 7 4 9 3 5 3 2 5 5 8 7 9 1 10 3 5 8 7 18 15 16 14 15 12
21 23 24 24 8 7 6 7 8 4 7 6 2 4 7 9 0 5 8 2 7 6 6 9 12 2 5 6 8 4 10 7 10 9 8 10 6 12 14 16 15 17 17 16 17
19 21 23 25 4 10 1 8 9 2 6 9 8 5 8 6 5 2 3 7 6 3 3 4 7 3 6 2 9 7 6 7 8 12 7 6 4 13 13 15 15 17 17 18 18
18 20 21 13 12 7 7 10 7 4 6 7 6 4 6 7 6 5 3 6 4 3 8 10 3 3 9 9 8 7 7 8 7 8 7 7 8 11 11 12 14 16 18 18 19
17 18 21 7 9 8 11 11 5 6 3 6 8 9 12 7 3 6 6 7 2 5 7 6 2 4 8 7 6 10 12 13 6 9 9 2 10 11 13 11 13 15 17 17 18
17 17 18 12 5 11 11 7 6 7 8 8 11 13 10 8 6 8 8 6 4 7 9 6 9 3 6 13 6 9 13 10 8 7 5 6 8 10 9 11 13 14 16 17 17
17 17 13 10 11 11 8 6 6 5 4 4 5 9 9 8 6 5 7 9 4 10 6 6 9 4 6 7 12 7 8 7 6 10 9 9 4 8 10 11 11 14 14 15 16
15 9 8 5 6 5 6 9 3 6 3 9 10 11 7 6 3 4 5 10 8 9 8 5 3 4 1 7 9 7 3 9 7 16 9 3 13 13 9 10 10 12 14 15 15
11 10 8 2 2 6 6 5 2 3 3 7 11 7 10 8 9 6 3 7 5 7 5 7 9 5 4 8 6 6 6 8 5 7 10 12 11 9 8 8 10 12 14 15 15
6 5 4 3 3 5 8 2 3 4 4 4 1 5 3 6 4 2 7 8 6 7 7 9 4 1 8 1 11 10 9 6 5 9 8 10 4 9 7 9 12 12 13 14 14
5 4 3 3 5 5 8 3 4 7 4 1 4 3 4 2 4 2 6 8 6 6 7 6 5 9 16 6 6 8 7 7 7 11 13 12 13 9 7 9 10 12 12 11 12
4 1 4 4 5 7 3 6 3 6 5 5 3 1 2 2 2 1 7 3 6 7 7 8 1 8 11 11 5 3 6 7 6 8 14 11 7 5 4 6 8 9 10 9 11
4 5 4 6 7 8 7 10 9 1 3 2 4 4 5 4 0 4 7 2 5 8 1 2 7 8 10 17 14 11 13 11 10 9 13 13 17 11 8 8 9 7 8 9 9
4 4 3 6 9 9 6 9 12 8 4 6 3 5 3 4 3 3 1 6 4 6 2 4 6 9 9 13 13 14 14 14 14 14 15 16 17 14 14 11 6 3 3 8 9
3 4 4 2 5 11 7 8 13 8 8 7 6 4 3 2 3 4 2 1 3 2 3 3 6 8 13 17 7 14 16 13 8 9 11 9 7 10 6 8 8 9 7 10 10
3 5 5 6 6 10 11 10 12 9 3 2 6 5 6 8 7 8 5 3 4 4 4 3 6 8 12 9 11 16 12 7 9 11 7 11 14 12 12 11 15 14 12 6 12
Wind_Direction
2 357 353 350 351 345 338 334 331 327 324 321 320 325 327 322 318 252 196 41 211 201 203 242 235 230 233 248 244 247 268 249 245 216 263 163 325 357 328 284 319 345 44 53 124
354 354 353 348 347 344 334 331 329 323 320 318 318 322 323 321 297 243 360 218 170 187 223 228 222 214 230 245 219 241 231 250 282 357 313 332 304 316 308 298 284 200 125 131 151
350 348 349 345 343 341 330 328 327 321 318 318 315 316 319 322 267 72 21 173 168 191 274 275 281 251 252 260 196 219 264 344 336 297 272 287 282 299 298 284 347 347 356 152 173
343 345 347 341 339 337 328 327 325 319 317 315 311 308 314 279 340 86 87 140 195 238 265 247 245 236 263 232 190 265 218 291 275 261 241 262 302 291 283 294 314 294 283 169 195
341 342 342 336 336 335 327 326 325 319 317 318 309 301 311 226 77 130 136 141 201 236 247 229 243 262 257 289 248 244 277 282 257 247 251 286 273 266 284 271 306 292 289 247 193
339 340 337 335 335 334 327 327 324 319 320 326 308 298 254 245 117 149 171 192 239 233 202 254 311 334 300 277 276 352 292 289 270 266 254 263 273 288 273 348 295 287 280 249 227
338 336 336 334 336 333 329 325 323 318 327 345 315 291 256 60 157 160 196 243 195 281 242 223 301 251 341 249 247 277 272 263 194 212 260 279 244 235 7 304 309 298 255 261 282
339 335 337 335 335 333 327 326 320 314 326 328 314 267 7 139 198 228 219 219 215 236 275 289 267 277 265 316 259 249 246 240 125 274 120 266 322 56 358 321 311 333 314 273 222
338 336 336 336 337 330 328 327 315 301 294 310 281 236 132 160 213 171 225 232 179 222 221 276 260 266 250 243 237 209 250 341 137 118 297 250 317 42 338 322 319 301 323 1 242
333 336 335 338 337 334 333 321 287 278 279 245 263 254 183 149 73 283 215 241 224 218 227 227 235 245 216 251 356 33 326 161 284 65 332 290 348 28 3 314 349 337 337 335 331
334 335 335 339 337 336 338 287 219 193 221 329 345 285 101 95 219 218 173 206 227 227 262 209 248 345 25 350 346 340 296 270 304 42 307 286 285 51 18 31 37 25 21 359 343
331 331 335 338 335 349 336 31 34 336 288 169 259 251 203 240 208 179 198 236 228 264 210 216 129 59 335 322 291 260 266 31 269 137 278 305 156 93 84 52 47 41 36 21 32
328 332 334 337 339 345 30 24 337 313 259 127 146 189 172 220 297 155 238 245 263 231 234 324 77 127 272 249 251 141 355 355 324 301 239 255 145 128 75 71 51 48 38 51 38
322 327 338 337 288 337 93 345 338 293 249 140 184 134 182 229 190 332 285 306 213 297 214 328 114 284 284 240 307 93 30 309 303 287 231 177 225 74 72 60 47 45 36 38 44
319 326 332 342 312 319 339 326 322 252 213 127 134 94 165 241 122 147 181 232 302 141 247 94 222 303 279 22 325 11 334 314 298 279 265 204 127 135 74 46 40 42 36 27 39
313 319 328 350 290 285 313 308 272 231 151 138 151 181 185 191 165 131 201 227 298 255 231 299 115 263 359 296 280 301 270 237 222 232 222 64 298 66 55 41 40 33 34 25 28
306 311 311 295 302 313 308 262 230 264 138 162 176 188 149 149 148 178 190 190 289 235 184 185 189 155 273 291 179 229 265 279 226 217 91 96 266 68 65 50 44 37 35 27 24
302 305 293 257 280 301 280 233 260 76 153 103 201 150 160 160 122 160 188 141 71 322 285 220 167 173 359 348 339 353 330 350 327 342 356 148 189 104 93 64 44 42 36 27 29
312 303 266 245 276 271 257 229 43 158 110 173 196 175 149 161 235 162 48 44 41 11 331 311 151 151 30 324 317 4 345 5 297 255 259 161 106 134 92 51 42 43 29 25 24
325 288 241 251 276 263 248 286 97 34 251 258 196 272 169 151 202 236 153 35 5 12 353 17 295 150 65 270 199 327 351 297 239 309 319 325 331 85 74 35 20 24 21 19 20
292 249 101 187 263 233 240 124 153 140 263 274 246 197 72 169 283 142 74 77 5 352 321 1 283 206 230 268 1 327 325 356 308 284 312 297 357 64 55 42 13 16 17 22 18
276 229 121 191 223 225 249 163 351 150 196 183 300 50 169 193 185 129 99 38 355 332 352 53 310 297 301 32 305 275 329 351 332 321 321 310 286 77 64 45 23 8 11 30 18
246 310 162 224 237 205 137 180 251 187 189 190 159 184 234 113 160 79 107 59 19 35 21 360 335 295 270 164 182 289 11 304 279 293 273 291 305 121 99 53 49 10 9 9 358
280 206 154 215 281 296 173 191 174 265 151 200 125 151 162 164 34 159 133 100 59 75 336 323 294 284 291 315 324 303 302 306 298 277 295 295 309 316 358 47 32 18 355 354 359
229 242 6 190 215 224 210 192 191 174 206 195 177 234 219 210 193 162 269 159 163 144 226 358 281 295 296 297 293 288 292 300 299 303 299 315 311 336 27 18 4 277 343 331 352
254 267 188 303 213 207 184 209 212 166 180 187 231 165 171 206 339 129 141 305 24 141 353 13 295 296 291 269 290 298 291 289 335 326 312 324 43 2 1 312 307 332 345 333 347
182 275 280 126 203 209 189 210 214 158 233 255 180 187 141 74 52 47 41 59 12 322 330 297 327 306 294 337 311 282 41 356 325 308 351 317 353 344 4 4 330 325 310 351 348